Regional Weather Roundup
Issued by NWS Northern Indiana

Home | Current Version | Previous Version | Text Only | Print | Product List | Glossary On
Versions: 1 2 3 4 5 6 7 8 9 10 11 12 13 14 15 16 17 18 19 20 21 22 23 24 25 26 27 28 29 30 31 32 33 34 35 36 37 38 39 40 41 42 43 44 45 46 47 48 49 50
000
ASUS43 KIWX 300310
RWRIWX

KIWX WEATHER ROUNDUP
NATIONAL WEATHER SERVICE NORTHERN INDIANA
1100 PM EDT SAT AUG 29 2015

NOTE: "FAIR" INDICATES FEW OR NO CLOUDS BELOW 12,000 FEET WITH NO
SIGNIFICANT WEATHER AND/OR OBSTRUCTIONS TO VISIBILITY.

* THESE STATIONS ARE NOT UNDER NWS QUALITY CONTROL. THEY ALSO MAY NOT
  REPORT WEATHER SUCH AS PRECIPITATION OR FOG.

INZ001>027-300400-
NORTHERN INDIANA

CITY           SKY/WX    TMP DP  RH WIND       PRES   REMARKS
GARY*          CLOUDY    70  64  83 CALM      30.05R
VALPARAISO     CLOUDY    70  67  90 S5        30.04S
MICHIGAN CITY* CLOUDY    70  70 100 CALM      30.03S
LAPORTE*       CLOUDY   N/A N/A N/A CALM      30.04F FOG
KNOX*          CLOUDY    68  68 100 SW10      30.03S
SOUTH BEND     CLOUDY    69  68  96 SE5       30.04S FOG
GOSHEN         CLOUDY    69  66  90 SE6       30.05R
MONTICELLO*    HVY RAIN  68  68 100 SW7       30.05R
LOGANSPORT*    LGT RAIN  68  64  88 E6        30.06S
ROCHESTER*     CLOUDY    70  68  94 S3        30.05F
WARSAW*        CLOUDY    68  66  94 CALM      30.05S
ANGOLA*        CLOUDY    66  57  72 SE3       30.07S
FORT WAYNE     LGT RAIN  71  69  93 E8        30.07S
HUNTINGTON*    CLOUDY    70  67  89 E3        30.06S FOG
PERU/GRISSOM   LGT RAIN  70  64  83 S8        30.05S
MARION*        CLOUDY    70  64  80 CALM      30.08R

$$
INZ028>050-300400-
CENTRAL INDIANA

CITY           SKY/WX    TMP DP  RH WIND       PRES   REMARKS
LAFAYETTE      CLOUDY    72  69  90 S6        30.04R
KOKOMO*        CLOUDY    70  61  73 SW8       30.07S
MUNCIE*        CLOUDY    73  67  81 S5        30.07S
INDIANAPOLIS   CLOUDY    74  67  78 S5        30.05R

$$
MIZ043>046-050>051-056>058-064>065-071>073-077>080-300400-
SOUTHWEST LOWER MICHIGAN

CITY           SKY/WX    TMP DP  RH WIND       PRES   REMARKS
BATTLE CREEK   CLOUDY    68  65  90 SE6       30.06F
BENTON HARBOR  CLOUDY    67  66  97 CALM      30.03S FOG
COLDWATER*     CLOUDY    67  66  98 E3        30.07S
HILLSDALE*     CLOUDY    67  67 100 SE3       30.09F
HOLLAND        CLOUDY    68  65  90 E5        30.05S FOG
GRAND RAPIDS   LGT RAIN  66  65  96 E5        30.06S FOG
KALAMAZOO      CLOUDY    68  65  90 S3        30.05S
STURGIS*       CLOUDY    66  64  94 CALM      30.05S
THREE RIVERS*  CLOUDY    67  66  96 CALM      30.05S

$$
OHZ001>008-015>018-024>025-300400-
NORTHWEST OHIO

CITY           SKY/WX    TMP DP  RH WIND       PRES   REMARKS
WAUSEON*       DRIZZLE   68  68 100 W5        30.08S
DEFIANCE       LGT RAIN  70  66  87 NE6       30.07S
FINDLAY        CLOUDY    73  68  84 E5        30.06F
TOLEDO EXPRESS LGT RAIN  69  68  96 CALM      30.07S FOG
TOLEDO METCALF CLOUDY    70  67  90 N3        30.07F FOG
LIMA           LGT RAIN  71  66  84 E3        30.08S

$$
AND FOR LAKE MICHIGAN COASTAL AND OPEN LAKE BUOY OBSERVATIONS

STATION/POSITION TEMP    WIND        PRES    VSBY  WAVE
                 AIR SEA DIR/SP/G                  HT/PER
                 (F)     (DEG/KT/KT) (MB)    (MI)  (FT/S)
MICHIGAN CITY     71     140/  7/  8   N/A
BURNS HARBOR      70     250/  5/  7 1016.9R
SAINT JOSEPH      68      CALM  /  2 1017.3F
SOUTH LAKE BUOY   67 68   30/  6/  8 1016.5R         1/ 3
4 MI NW BRIDGMAN  70 70  190/  8/  8   N/A           1
MICHIGAN CITY     71 70  230/  4/  6   N/A           0

$$
&&


USA.gov is the U.S. government's official web portal to all federal, state and local government web resources and services.